GW1348 Weather Reports


time (UTC)temp
F
wind
direction
speed
knots
gust
knots
rain 1hr
in
rain 24hr
in
rain mn
in
humidity
%
barometer
mb
20260508142529 61 135 6.1 14.8 0.00 0.00 0.00 30 1015.8
20260508142030 61 159 6.1 13.9 0.00 0.00 0.00 31 1015.7
20260508141542 61 205 5.2 13.9 0.00 0.00 0.00 30 1015.8
20260508141031 61 143 6.1 17.4 0.00 0.00 0.00 30 1015.7
20260508140533 61 218 7.0 17.4 0.00 0.00 0.00 28 1015.8
20260508140049 62 108 7.0 17.4 0.00 0.00 0.00 27 1016.0
20260508135529 62 195 2.6 13.9 0.00 0.00 0.00 26 1016.0
20260508135030 62 153 5.2 13.9 0.00 0.00 0.00 25 1016.0
20260508134545 62 211 5.2 13.9 0.00 0.00 0.00 25 1016.0
20260508134030 62 167 4.3 10.4 0.00 0.00 0.00 26 1016.0
20260508133530 61 86 2.6 8.7 0.00 0.00 0.00 27 1015.9
20260508133043 60 254 0.9 9.6 0.00 0.00 0.00 38 1016.0
20260508132531 60 13 1.7 9.6 0.00 0.00 0.00 38 1016.0
20260508132030 58 159 2.6 13.0 0.00 0.00 0.00 34 1016.1
20260508131541 57 47 1.7 13.0 0.00 0.00 0.00 47 1016.1
20260508131030 54 178 1.7 7.0 0.00 0.00 0.00 47 1016.1
20260508130530 54 326 0.0 2.6 0.00 0.00 0.00 50 1016.2
20260508130039 53 284 0.9 3.5 0.00 0.00 0.00 54 1016.2
20260508125531 54 339 1.7 5.2 0.00 0.00 0.00 51 1016.3
20260508125030 54 0 0.9 5.2 0.00 0.00 0.00 52 1016.5
20260508124548 54 357 1.7 3.5 0.00 0.00 0.00 52 1016.5
20260508124031 54 27 0.9 2.6 0.00 0.00 0.00 48 1016.7
20260508123529 55 68 0.9 6.1 0.00 0.00 0.00 51 1016.7
20260508123041 54 65 0.9 6.1 0.00 0.00 0.00 52 1016.7
20260508122530 54 320 0.9 4.3 0.00 0.00 0.00 52 1016.7
20260508122031 54 25 0.9 4.3 0.00 0.00 0.00 52 1016.7
20260508121540 55 223 0.9 4.3 0.00 0.00 0.00 50 1016.8
20260508121030 55 82 0.9 3.5 0.00 0.00 0.00 50 1016.9
20260508120530 54 0 1.7 3.5 0.00 0.00 0.00 52 1017.1
20260508120050 53 40 0.9 4.3 0.00 0.00 0.00 50 1017.0
20260508115530 53 314 0.9 4.3 0.00 0.00 0.00 48 1017.0
20260508115030 53 48 1.7 3.5 0.00 0.00 0.00 50 1017.1
20260508114542 52 46 0.9 2.6 0.00 0.00 0.00 49 1017.1
20260508114031 52 0 0.9 2.6 0.00 0.00 0.00 48 1017.2
20260508113530 52 41 0.0 1.7 0.00 0.00 0.00 49 1017.2
20260508113043 52 0 0.0 1.7 0.00 0.00 0.00 51 1017.2
20260508112534 52 50 0.0 3.5 0.00 0.00 0.00 50 1017.3
20260508112027 52 91 0.9 3.5 0.00 0.00 0.00 48 1017.3
20260508111540 52 71 1.7 3.5 0.00 0.00 0.00 49 1017.3
20260508111030 52 54 0.9 2.6 0.00 0.00 0.00 49 1017.3
20260508110531 52 30 0.9 2.6 0.00 0.00 0.00 51 1017.3
20260508110040 51 102 0.9 3.5 0.00 0.00 0.00 52 1017.4
20260508105532 51 38 0.0 3.5 0.00 0.00 0.00 52 1017.4
20260508105029 51 54 0.9 3.5 0.00 0.00 0.00 51 1017.5
20260508104541 51 46 0.9 3.5 0.00 0.00 0.00 54 1017.5
20260508104031 51 0 1.7 3.5 0.00 0.00 0.00 54 1017.6
20260508103530 50 63 1.7 4.3 0.00 0.00 0.00 54 1017.6
20260508103048 50 72 0.9 4.3 0.00 0.00 0.00 53 1017.6
20260508102529 50 27 1.7 4.3 0.00 0.00 0.00 53 1017.7
20260508102031 49 43 0.0 2.6 0.00 0.00 0.00 56 1017.7
20260508101545 49 79 0.9 3.5 0.00 0.00 0.00 54 1017.7
20260508101030 49 0 0.0 4.3 0.00 0.00 0.00 56 1017.8
20260508100532 48 68 0.9 5.2 0.00 0.00 0.00 57 1017.8
20260508100042 47 61 2.6 5.2 0.00 0.00 0.00 58 1017.8
20260508095531 47 52 0.9 3.5 0.00 0.00 0.00 59 1017.9
20260508095031 47 43 0.9 2.6 0.00 0.00 0.00 59 1017.8
20260508094548 47 39 0.9 3.5 0.00 0.00 0.00 63 1017.7
20260508094031 47 41 0.9 3.5 0.00 0.00 0.00 62 1017.8
20260508093533 46 39 0.0 2.6 0.00 0.00 0.00 64 1017.8
20260508093042 46 0 0.0 2.6 0.00 0.00 0.00 65 1017.8
20260508092530 46 20 0.9 2.6 0.00 0.00 0.00 64 1017.8
20260508092033 46 47 0.0 2.6 0.00 0.00 0.00 65 1017.9
20260508091539 46 50 0.0 1.7 0.00 0.00 0.00 66 1017.9
20260508091030 46 29 0.0 1.7 0.00 0.00 0.00 66 1017.9
20260508090531 45 62 0.9 1.7 0.00 0.00 0.00 65 1018.0
20260508090043 46 58 0.0 2.6 0.00 0.00 0.00 65 1017.9
20260508085532 46 34 0.9 2.6 0.00 0.00 0.00 65 1017.9
20260508085029 45 35 0.0 2.6 0.00 0.00 0.00 65 1018.0
20260508084555 45 4 0.9 2.6 0.00 0.00 0.00 64 1018.0
20260508084033 45 56 0.0 2.6 0.00 0.00 0.00 64 1018.1
20260508083531 45 0 0.0 1.7 0.00 0.00 0.00 64 1018.1
20260508083051 45 75 0.9 1.7 0.00 0.00 0.00 62 1018.0
20260508082530 45 35 0.0 2.6 0.00 0.00 0.00 61 1018.0
20260508082030 45 59 0.9 3.5 0.00 0.00 0.00 61 1018.1
20260508081547 45 0 1.7 3.5 0.00 0.00 0.00 60 1018.1
20260508081034 45 62 0.9 3.5 0.00 0.00 0.00 60 1018.1
20260508080531 45 39 0.9 3.5 0.00 0.00 0.00 58 1018.2
20260508080058 44 0 0.0 4.3 0.00 0.00 0.00 61 1018.1
20260508075533 44 355 0.0 4.3 0.00 0.00 0.00 61 1018.1
20260508075033 44 104 0.9 4.3 0.00 0.00 0.00 63 1018.1
20260508074542 44 281 1.7 3.5 0.00 0.00 0.00 62 1018.2
20260508074032 44 49 0.9 2.6 0.00 0.00 0.00 62 1018.2
20260508073530 44 45 0.9 2.6 0.00 0.00 0.00 62 1018.0
20260508073055 43 0 0.9 1.7 0.00 0.00 0.00 59 1018.1
20260508072531 43 57 0.0 1.7 0.00 0.00 0.00 62 1018.1
20260508072032 43 47 0.0 1.7 0.00 0.00 0.00 61 1018.1
20260508071543 43 360 0.0 1.7 0.00 0.00 0.00 61 1018.1
20260508071030 42 25 0.0 1.7 0.00 0.00 0.00 63 1018.1
20260508070530 42 60 0.0 2.6 0.00 0.00 0.00 65 1018.1
20260508070048 42 47 0.0 2.6 0.00 0.00 0.00 65 1018.2
20260508065532 41 0 0.0 0.9 0.00 0.00 0.00 65 1018.1
20260508065029 41 0 0.0 2.6 0.00 0.00 0.00 66 1018.1
20260508064549 41 84 0.0 2.6 0.00 0.00 0.00 66 1018.2
20260508064029 41 31 0.0 1.7 0.00 0.00 0.00 66 1018.2
20260508063532 41 0 0.0 1.7 0.00 0.00 0.00 67 1018.3
20260508063044 41 0 0.0 0.0 0.00 0.00 0.00 66 1018.4
20260508062532 41 0 0.0 0.0 0.00 0.00 0.00 68 1018.4
20260508062031 40 0 0.0 0.0 0.00 0.00 0.00 69 1018.4
20260508061543 40 0 0.0 0.9 0.00 0.00 0.00 68 1018.4
20260508061035 40 0 0.0 0.9 0.00 0.00 0.00 69 1018.5
20260508060532 40 0 0.0 1.7 0.00 0.00 0.00 66 1018.5
20260508060042 40 65 0.0 1.7 0.00 0.00 0.00 69 1018.5
20260508055532 41 46 0.0 1.7 0.00 0.00 0.00 69 1018.5
20260508055032 40 0 0.0 1.7 0.00 0.00 0.00 71 1018.4
20260508054547 40 50 0.0 1.7 0.00 0.00 0.00 72 1018.4
20260508054033 40 32 0.0 1.7 0.00 0.00 0.00 72 1018.4
20260508053532 40 0 0.0 0.0 0.00 0.00 0.00 71 1018.5
20260508053052 40 0 0.0 0.0 0.00 0.00 0.00 73 1018.4
20260508052533 39 0 0.0 0.0 0.00 0.00 0.00 74 1018.4
20260508052033 40 0 0.0 0.0 0.00 0.00 0.00 74 1018.4
20260508051546 40 0 0.0 0.0 0.00 0.00 0.00 74 1018.4
20260508051033 40 0 0.0 0.0 0.00 0.00 0.00 73 1018.3
20260508050533 40 0 0.0 0.0 0.00 0.00 0.00 72 1018.4
20260508050052 41 0 0.0 0.0 0.00 0.00 0.00 72 1018.3
20260508045532 41 0 0.0 0.0 0.00 0.00 0.00 71 1018.4
20260508045032 41 0 0.0 0.0 0.00 0.00 0.00 72 1018.3
20260508044543 41 0 0.0 0.0 0.00 0.00 0.00 71 1018.3
20260508044033 41 0 0.0 0.0 0.00 0.00 0.00 72 1018.4
20260508043532 41 0 0.0 0.0 0.00 0.00 0.00 73 1018.3
20260508043040 40 0 0.0 0.0 0.00 0.00 0.00 76 1018.4
20260508042529 39 0 0.0 0.0 0.00 0.00 0.00 77 1018.4
20260508042029 38 0 0.0 0.0 0.00 0.00 0.00 78 1018.4
20260508041544 38 0 0.0 0.0 0.00 0.00 0.00 78 1018.4
20260508041033 37 0 0.0 0.0 0.00 0.00 0.00 80 1018.4
20260508040533 37 0 0.0 0.0 0.00 0.00 0.00 81 1018.4
20260508040054 36 0 0.0 0.0 0.00 0.00 0.00 81 1018.3
20260508035532 36 0 0.0 0.0 0.00 0.00 0.00 81 1018.4
20260508035029 36 0 0.0 0.0 0.00 0.00 0.00 81 1018.4
20260508034545 36 0 0.0 0.0 0.00 0.00 0.00 81 1018.5
20260508034032 36 0 0.0 0.0 0.00 0.00 0.00 81 1018.5
20260508033534 36 0 0.0 0.0 0.00 0.00 0.00 81 1018.5
20260508033048 35 0 0.0 0.0 0.00 0.00 0.00 81 1018.5
20260508032530 35 0 0.0 0.0 0.00 0.00 0.00 81 1018.6
20260508032032 35 0 0.0 0.0 0.00 0.00 0.00 81 1018.6
20260508031546 35 0 0.0 0.0 0.00 0.00 0.00 81 1018.5
20260508031030 35 0 0.0 0.9 0.00 0.00 0.00 81 1018.6
20260508030530 35 0 0.0 0.9 0.00 0.00 0.00 82 1018.6
20260508030052 35 0 0.0 0.9 0.00 0.00 0.00 82 1018.7
20260508025531 35 313 0.0 0.9 0.00 0.00 0.00 82 1018.7
20260508025030 34 57 0.0 1.7 0.00 0.00 0.00 83 1018.7
20260508024544 34 301 0.0 1.7 0.00 0.00 0.00 84 1018.8
20260508024034 34 295 0.0 0.9 0.00 0.00 0.00 83 1018.8
20260508023530 34 0 0.0 1.7 0.00 0.00 0.00 83 1018.7
20260508023042 34 295 0.0 1.7 0.00 0.00 0.00 83 1018.8
20260508022529 34 0 0.0 0.9 0.00 0.00 0.00 83 1018.8
20260508022030 34 279 0.0 0.9 0.00 0.00 0.00 84 1018.9
20260508021544 34 0 0.0 0.0 0.00 0.00 0.00 84 1018.8
20260508021033 34 0 0.0 0.0 0.00 0.00 0.00 84 1018.8
20260508020532 34 0 0.0 0.0 0.00 0.00 0.00 84 1018.9
20260508020041 34 0 0.0 0.0 0.00 0.00 0.00 84 1018.9
20260508015532 34 0 0.0 0.0 0.00 0.00 0.00 84 1018.9
20260508015032 34 0 0.0 0.0 0.00 0.00 0.00 84 1018.8
20260508014542 34 0 0.0 0.0 0.00 0.00 0.00 84 1018.9
20260508014032 34 0 0.0 0.0 0.00 0.00 0.00 83 1019.0
20260508013529 34 0 0.0 0.0 0.00 0.00 0.00 83 1018.9
20260508013046 34 0 0.0 0.0 0.00 0.00 0.00 83 1018.9
20260508012529 34 0 0.0 0.0 0.00 0.00 0.00 83 1018.8
20260508012033 35 0 0.0 0.0 0.00 0.00 0.00 82 1018.9
20260508011540 35 0 0.0 0.0 0.00 0.00 0.00 82 1018.9
20260508011032 35 0 0.0 0.9 0.00 0.00 0.00 82 1018.9
20260508010532 35 0 0.0 0.9 0.00 0.00 0.00 82 1018.9
20260508010041 35 0 0.0 0.9 0.00 0.00 0.00 82 1019.0
20260508005533 35 288 0.0 1.7 0.00 0.00 0.00 82 1018.9
20260508005033 35 0 0.0 1.7 0.00 0.00 0.00 82 1019.0
20260508004550 35 0 0.0 1.7 0.00 0.00 0.00 82 1019.0
20260508004029 35 0 0.0 1.7 0.00 0.00 0.00 82 1018.9
20260508003532 35 289 0.0 0.9 0.00 0.00 0.00 81 1019.0
20260508003048 35 0 0.0 0.9 0.00 0.00 0.00 81 1018.9
20260508002530 35 281 0.0 0.9 0.00 0.00 0.00 81 1019.0
20260508002030 35 0 0.0 0.9 0.00 0.00 0.00 81 1019.0
20260508001548 35 276 0.0 1.7 0.00 0.00 0.00 81 1019.1
20260508001029 36 297 0.0 1.7 0.00 0.00 0.00 81 1019.2
20260508000534 36 296 0.9 1.7 0.00 0.00 0.00 81 1019.1
20260508000052 36 0 0.0 1.7 0.00 0.00 0.00 81 1019.2
20260507235532 36 0 0.0 1.7 0.00 0.00 0.00 81 1019.2
20260507235030 36 0 0.0 1.7 0.00 0.00 0.00 81 1019.2
20260507234552 36 0 0.0 0.9 0.00 0.00 0.00 81 1019.2
20260507234029 36 0 0.0 0.9 0.00 0.00 0.00 81 1019.3
20260507233532 36 281 0.0 1.7 0.00 0.00 0.00 80 1019.3
20260507233109 37 288 0.9 1.7 0.00 0.00 0.00 80 1019.2
20260507232532 37 269 0.9 1.7 0.00 0.00 0.00 80 1019.4
20260507232031 37 0 0.0 0.0 0.00 0.00 0.00 79 1019.3
20260507231545 37 0 0.0 0.0 0.00 0.00 0.00 79 1019.3
20260507231030 37 0 0.0 0.0 0.00 0.00 0.00 79 1019.4
20260507230532 37 0 0.0 0.0 0.00 0.00 0.00 79 1019.4
20260507230046 37 0 0.0 0.0 0.00 0.00 0.00 79 1019.5
20260507225531 37 0 0.0 0.0 0.00 0.00 0.00 78 1019.5
20260507225033 37 0 0.0 0.0 0.00 0.00 0.00 78 1019.4
20260507224549 37 0 0.0 0.0 0.00 0.00 0.00 78 1019.3
20260507224030 38 0 0.0 0.0 0.00 0.00 0.00 78 1019.5
20260507223533 38 0 0.0 0.0 0.00 0.00 0.00 78 1019.4
20260507223058 38 0 0.0 0.0 0.00 0.00 0.00 78 1019.5
20260507222534 38 0 0.0 0.0 0.00 0.00 0.00 77 1019.5
20260507222032 38 0 0.0 0.0 0.00 0.00 0.00 77 1019.4
20260507221544 38 0 0.0 0.0 0.00 0.00 0.00 77 1019.4
20260507221031 38 0 0.0 0.0 0.00 0.00 0.00 76 1019.4
20260507220531 38 0 0.0 0.0 0.00 0.00 0.00 76 1019.4
20260507220042 38 0 0.0 0.0 0.00 0.00 0.00 75 1019.5
20260507215530 38 0 0.0 0.0 0.00 0.00 0.00 75 1019.4
20260507215033 38 0 0.0 0.0 0.00 0.00 0.00 74 1019.5
20260507214547 38 0 0.0 0.0 0.00 0.00 0.00 74 1019.5
20260507214034 38 0 0.0 0.0 0.00 0.00 0.00 74 1019.5
20260507213530 38 0 0.0 0.0 0.00 0.00 0.00 74 1019.4
20260507213045 38 0 0.0 0.0 0.00 0.00 0.00 74 1019.4
20260507212532 38 0 0.0 0.0 0.00 0.00 0.00 74 1019.3
20260507212032 38 0 0.0 0.0 0.00 0.00 0.00 74 1019.3
20260507211555 38 0 0.0 0.0 0.00 0.00 0.00 74 1019.3
20260507211031 38 0 0.0 0.0 0.00 0.00 0.00 74 1019.2
20260507210530 38 0 0.0 0.0 0.00 0.00 0.00 74 1019.3
20260507210104 38 0 0.0 0.0 0.00 0.00 0.00 74 1019.2
20260507205529 39 0 0.0 0.0 0.00 0.00 0.00 74 1019.3
20260507205030 39 0 0.0 0.0 0.00 0.00 0.00 74 1019.3
20260507204547 39 0 0.0 0.0 0.00 0.00 0.00 74 1019.2
20260507204029 39 0 0.0 0.0 0.00 0.00 0.00 74 1019.2
20260507203530 39 0 0.0 0.0 0.00 0.00 0.00 74 1019.2
20260507203040 39 0 0.0 0.0 0.00 0.00 0.00 73 1019.1
20260507202529 39 0 0.0 0.0 0.00 0.00 0.00 73 1019.1
20260507202031 39 0 0.0 0.0 0.00 0.00 0.00 73 1018.9
20260507201545 39 0 0.0 0.0 0.00 0.00 0.00 72 1019.0
20260507201032 39 0 0.0 0.0 0.00 0.00 0.00 72 1019.0
20260507200529 39 0 0.0 0.0 0.00 0.00 0.00 72 1019.0
20260507200052 39 0 0.0 0.0 0.00 0.00 0.00 72 1019.0
20260507195532 39 0 0.0 0.0 0.00 0.00 0.00 72 1018.9
20260507195029 39 0 0.0 0.0 0.00 0.00 0.00 71 1018.8
20260507194550 39 0 0.0 0.0 0.00 0.00 0.00 71 1018.7
20260507194030 40 0 0.0 0.0 0.00 0.00 0.00 71 1018.8
20260507193530 39 0 0.0 0.0 0.00 0.00 0.00 72 1018.7
20260507193047 40 0 0.0 0.9 0.00 0.00 0.00 72 1018.6
20260507192529 39 0 0.0 1.7 0.00 0.00 0.00 72 1018.5
20260507192029 40 282 0.0 1.7 0.00 0.00 0.00 72 1018.6
20260507191547 40 265 0.0 0.9 0.00 0.00 0.00 71 1018.5
20260507191032 40 0 0.0 0.0 0.00 0.00 0.00 71 1018.4
20260507190530 40 0 0.0 0.0 0.00 0.00 0.00 71 1018.4
20260507190056 40 0 0.0 0.0 0.00 0.00 0.00 71 1018.4
20260507185532 40 0 0.0 0.0 0.00 0.00 0.00 71 1018.4
20260507185034 40 0 0.0 0.0 0.00 0.00 0.00 71 1018.3
20260507184546 40 0 0.0 0.0 0.00 0.00 0.00 71 1018.2
20260507184032 40 0 0.0 0.0 0.00 0.00 0.00 71 1018.2
20260507183531 40 0 0.0 0.0 0.00 0.00 0.00 70 1018.2
20260507183050 40 0 0.0 0.0 0.00 0.00 0.00 71 1018.3
20260507182530 40 0 0.0 0.0 0.00 0.00 0.00 70 1018.2
20260507182030 40 0 0.0 0.0 0.00 0.00 0.00 70 1018.3
20260507181544 40 0 0.0 0.0 0.00 0.00 0.00 70 1018.2
20260507181032 40 0 0.0 0.0 0.00 0.00 0.00 70 1018.2
20260507180530 40 0 0.0 0.9 0.00 0.00 0.00 69 1018.3
20260507180046 40 0 0.0 0.9 0.00 0.00 0.00 69 1018.3
20260507175530 41 0 0.0 0.9 0.00 0.00 0.00 68 1018.3
20260507175030 41 243 0.0 0.9 0.00 0.00 0.00 69 1018.3
20260507174554 41 0 0.0 0.9 0.00 0.00 0.00 70 1018.3
20260507174030 41 0 0.0 0.0 0.00 0.00 0.00 69 1018.3
20260507173530 41 0 0.0 0.0 0.00 0.00 0.00 68 1018.2
20260507173048 41 0 0.0 0.0 0.00 0.00 0.00 68 1018.1
20260507172530 41 0 0.0 0.0 0.00 0.00 0.00 67 1018.1
20260507172029 42 0 0.0 0.9 0.00 0.00 0.00 67 1018.1
20260507171542 42 0 0.0 0.9 0.00 0.00 0.00 66 1017.8
20260507171032 43 0 0.0 4.3 0.00 0.00 0.00 64 1017.8
20260507170531 43 0 0.0 4.3 0.00 0.00 0.00 62 1017.8
20260507170048 44 0 0.9 5.2 0.00 0.00 0.00 60 1017.9
20260507165531 44 51 0.9 5.2 0.00 0.00 0.00 59 1017.9
20260507165029 44 154 0.9 5.2 0.00 0.00 0.00 59 1018.0
20260507164603 45 37 0.9 2.6 0.00 0.00 0.00 59 1018.0
20260507164030 45 0 0.0 7.8 0.00 0.00 0.00 58 1017.9
20260507163533 45 77 1.7 7.8 0.00 0.00 0.00 55 1017.8
20260507163047 46 136 1.7 7.8 0.00 0.00 0.00 55 1017.7
20260507162530 47 276 0.9 7.8 0.00 0.00 0.00 52 1017.7
20260507162030 48 27 2.6 7.0 0.00 0.00 0.00 52 1017.8
20260507161556 48 0 0.9 6.1 0.00 0.00 0.00 53 1017.8
20260507161030 47 141 1.7 6.1 0.00 0.00 0.00 53 1017.8
20260507160530 48 151 1.7 6.1 0.00 0.00 0.00 51 1017.8
20260507160044 48 142 0.0 7.0 0.00 0.00 0.00 54 1017.7
20260507155529 47 155 1.7 7.0 0.00 0.00 0.00 54 1017.8
20260507155030 47 278 2.6 7.0 0.00 0.00 0.00 53 1017.7
20260507154549 48 158 1.7 6.1 0.00 0.00 0.00 53 1017.6
20260507154030 48 333 1.7 4.3 0.00 0.00 0.00 52 1017.6
20260507153530 48 40 0.9 8.7 0.00 0.00 0.00 54 1017.6
20260507153045 48 278 2.6 8.7 0.00 0.00 0.00 53 1017.6
20260507152530 48 44 1.7 7.8 0.00 0.00 0.00 54 1017.6
20260507152031 48 0 1.7 7.0 0.00 0.00 0.00 55 1017.5
20260507151540 48 68 2.6 7.0 0.00 0.00 0.00 54 1017.4
20260507151030 49 330 0.9 4.3 0.00 0.00 0.00 56 1017.3
20260507150530 48 155 1.7 4.3 0.00 0.00 0.00 57 1017.4
20260507150047 48 131 1.7 6.1 0.00 0.00 0.00 56 1017.3
20260507145529 48 64 1.7 6.1 0.00 0.00 0.00 57 1017.3
20260507145032 48 351 1.7 5.2 0.00 0.00 0.00 58 1017.2
20260507144547 49 37 1.7 10.4 0.00 0.00 0.00 57 1017.2
20260507144029 48 359 1.7 10.4 0.00 0.00 0.00 59 1017.1
20260507143529 47 114 0.9 8.7 0.00 0.00 0.00 59 1017.2
20260507143049 47 29 1.7 8.7 0.00 0.00 0.00 60 1017.1